Location: Harwich
(41.7160°N, 69.9939°W)
Time: 10:43:16
(UTC+02:00)

A-11 Canister half - Pass Details

Date: 29 February 2024
Orbit: 1513 x 1686 km, 47.2° (Epoch: 24 April)

Event Time Altitude Azimuth Distance (km) Brightness Sun altitude
Exits shadow 08:07:01 57° 46° (NE) 1,916 9.5 -44.9°
Drops below altitude 10° 08:14:41 10° 69° (ENE) 3,879 11.7 -43.7°
Sets 08:17:49 0° 72° (ENE) 4,845 12.3 -43.3°
